Weather History for Waukesha, WI

Change the Weather History Date:

Wednesday, March 5, 2014

  Actual Average Record
Temperature  
Mean Temperature 12 °F -  
Max Temperature 17 °F 38 °F 64 °F (1983)
Min Temperature 5 °F 22 °F -1 °F (1960)
Degree Days  
Heating Degree Days 54    
Moisture  
Dew Point 8 °F    
Average Humidity 81    
Maximum Humidity 93    
Minimum Humidity 63    
Precipitation  
Precipitation 0.00 in - - ()
Sea Level Pressure  
Sea Level Pressure 30.40 in    
Wind  
Wind Speed 6 mph (NE)    
Max Wind Speed 14 mph    
Max Gust Speed 18 mph    
Visibility 8 miles    
Events Snow    
Averages and records for this station are not official NWS values.
T = Trace of Precipitation, MM = Missing Value Source: NWS Daily Summary

Daily Weather History Graph

Daily Weather History Graph

Search for Another Location

Airport:

Trip Planner

Search our weather history database for the weather conditions in past years. The results will help you decide how hot, cold, wet, or windy it might be!

Date:

Astronomy

Mar. 05, 2014 Rise Set
Actual Time 6:22 AM CST 5:47 PM CST
Civil Twilight 5:53 AM CST 6:15 PM CST
Nautical Twilight 5:21 AM CST 6:48 PM CST
Astronomical Twilight 4:48 AM CST 7:21 PM CST
Moon 8:40 AM CST (3/5) 11:04 PM CST (3/5)
Length of Visible Light 12h 21m
Length of Day
11h 24m
Waxing Crescent, 23% of the Moon is Illuminated
Mar 5
Waxing Crescent
Mar 8
First Quarter
Mar 16
Full
Mar 23
Last Quarter
Mar 30
New

Hourly Weather History & Observations

Time (CST) Temp. Windchill Dew Point Humidity Pressure Visibility Wind Dir Wind Speed Gust Speed Precip Events Conditions
12:15 AM 14.0 °F 6.5 °F 8.6 °F 79% 30.27 in 3.0 mi NE 4.6 mph - N/A Snow Light Snow
12:35 AM 14.0 °F 5.1 °F 10.4 °F 86% 30.27 in 3.0 mi ENE 5.8 mph - N/A Snow Light Snow
12:55 AM 14.0 °F 5.1 °F 10.4 °F 86% 30.28 in 3.0 mi NE 5.8 mph - N/A Snow Light Snow
1:15 AM 14.0 °F 6.5 °F 10.4 °F 86% 30.29 in 5.0 mi NE 4.6 mph - N/A   Overcast
1:35 AM 14.0 °F - 10.4 °F 86% 30.30 in 10.0 mi Calm Calm - N/A   Overcast
1:55 AM 14.0 °F - 10.4 °F 86% 30.31 in 2.0 mi Calm Calm - N/A   Overcast
2:15 AM 14.0 °F - 10.4 °F 86% 30.31 in 1.2 mi Calm Calm - N/A   Scattered Clouds
2:35 AM 14.0 °F 8.2 °F 10.4 °F 86% 30.31 in 1.5 mi NNE 3.5 mph - N/A   Unknown
2:55 AM 14.0 °F - 12.2 °F 93% 30.32 in 1.2 mi Calm Calm - N/A   Unknown
3:15 AM 14.0 °F 8.2 °F 12.2 °F 93% 30.32 in 1.5 mi NNE 3.5 mph - N/A   Unknown
3:35 AM 14.0 °F 6.5 °F 12.2 °F 93% 30.32 in 1.8 mi NNE 4.6 mph - N/A   Unknown
3:55 AM 14.0 °F 6.5 °F 12.2 °F 93% 30.32 in 2.0 mi NNE 4.6 mph - N/A Snow Light Snow
4:15 AM 14.0 °F 1.2 °F 12.2 °F 93% 30.32 in 3.0 mi NE 10.4 mph - N/A Snow Light Snow
4:35 AM 14.0 °F 5.1 °F 12.2 °F 93% 30.33 in 4.0 mi ENE 5.8 mph - N/A Snow Light Snow
4:55 AM 14.0 °F 2.0 °F 12.2 °F 93% 30.34 in 3.0 mi ENE 9.2 mph - N/A Snow Light Snow
5:15 AM 14.0 °F 2.0 °F 10.4 °F 86% 30.35 in 5.0 mi NE 9.2 mph - N/A   Overcast
5:45 AM 14.0 °F 2.0 °F 10.4 °F 86% 30.37 in 2.0 mi NE 9.2 mph - N/A Snow Light Snow
6:45 AM 15.8 °F 1.4 °F 8.6 °F 73% 30.39 in 10.0 mi ENE 13.8 mph - N/A   Overcast
7:45 AM 15.8 °F 1.4 °F 8.6 °F 73% 30.40 in 10.0 mi ENE 13.8 mph - N/A   Overcast
8:45 AM 15.8 °F 1.4 °F 8.6 °F 73% 30.42 in 10.0 mi ENE 13.8 mph - N/A   Mostly Cloudy
9:45 AM 15.8 °F 1.4 °F 6.8 °F 68% 30.44 in 10.0 mi ENE 13.8 mph - N/A   Scattered Clouds
10:45 AM 15.8 °F 1.4 °F 6.8 °F 68% 30.45 in 10.0 mi NE 13.8 mph - N/A   Scattered Clouds
11:45 AM 17.6 °F 3.7 °F 6.8 °F 63% 30.45 in 10.0 mi NE 13.8 mph - N/A   Scattered Clouds
12:45 PM 17.6 °F 3.7 °F 6.8 °F 63% 30.44 in 10.0 mi ENE 13.8 mph - N/A   Scattered Clouds
1:45 PM 17.6 °F 3.7 °F 6.8 °F 63% 30.44 in 10.0 mi NE 13.8 mph - N/A   Scattered Clouds
2:45 PM 17.6 °F 4.3 °F 6.8 °F 63% 30.45 in 10.0 mi ENE 12.7 mph - N/A   Scattered Clouds
3:45 PM 15.8 °F 2.1 °F 6.8 °F 68% 30.45 in 10.0 mi NE 12.7 mph 18.4 mph N/A   Scattered Clouds
4:45 PM 15.8 °F 3.4 °F 6.8 °F 68% 30.45 in 10.0 mi NE 10.4 mph 17.3 mph N/A   Scattered Clouds
5:15 PM 14.0 °F 1.2 °F 6.8 °F 73% 30.45 in 10.0 mi NE 10.4 mph 17.3 mph N/A   Clear
5:35 PM 14.0 °F 0.5 °F 6.8 °F 73% 30.46 in 10.0 mi NE 11.5 mph 17.3 mph N/A   Clear
5:45 PM 12.2 °F 1.7 °F 6.8 °F 79% 30.46 in 10.0 mi NE 6.9 mph 17.3 mph N/A   Mostly Cloudy
5:55 PM 12.2 °F -0.2 °F 6.8 °F 79% 30.46 in 10.0 mi NE 9.2 mph - N/A   Clear
6:15 PM 12.2 °F 0.7 °F 6.8 °F 79% 30.47 in 10.0 mi NE 8.1 mph 16.1 mph N/A   Clear
6:35 PM 12.2 °F 1.7 °F 6.8 °F 79% 30.47 in 10.0 mi NE 6.9 mph - N/A   Clear
6:45 PM 12.2 °F -0.2 °F 6.8 °F 79% 30.47 in 10.0 mi NE 9.2 mph - N/A   Scattered Clouds
6:55 PM 12.2 °F 1.7 °F 6.8 °F 79% 30.47 in 10.0 mi NE 6.9 mph - N/A   Clear
7:15 PM 12.2 °F 2.9 °F 6.8 °F 79% 30.47 in 10.0 mi NE 5.8 mph - N/A   Clear
7:35 PM 12.2 °F 1.7 °F 6.8 °F 79% 30.46 in 10.0 mi NE 6.9 mph - N/A   Clear
7:45 PM 10.4 °F -0.4 °F 6.8 °F 85% 30.46 in 10.0 mi NE 6.9 mph - N/A   Clear
7:55 PM 12.2 °F 1.7 °F 6.8 °F 79% 30.45 in 10.0 mi ENE 6.9 mph - N/A   Clear
8:15 PM 12.2 °F 2.9 °F 6.8 °F 79% 30.45 in 10.0 mi NE 5.8 mph - N/A   Clear
8:35 PM 10.4 °F - 6.8 °F 85% 30.45 in 10.0 mi Calm Calm - N/A   Clear
8:45 PM 10.4 °F - 6.8 °F 85% 30.45 in 10.0 mi Calm Calm - N/A   Clear
8:55 PM 10.4 °F - 6.8 °F 85% 30.46 in 10.0 mi Calm Calm - N/A   Clear
9:15 PM 10.4 °F - 6.8 °F 85% 30.46 in 10.0 mi Calm Calm - N/A   Clear
9:35 PM 10.4 °F - 6.8 °F 85% 30.45 in 10.0 mi Calm Calm - N/A   Clear
9:55 PM 10.4 °F - 6.8 °F 85% 30.45 in 10.0 mi Calm Calm - N/A   Clear
10:15 PM 10.4 °F - 6.8 °F 85% 30.45 in 10.0 mi Calm Calm - N/A   Clear
10:35 PM 8.6 °F - 5.0 °F 85% 30.44 in 10.0 mi Calm Calm - N/A   Clear
10:55 PM 8.6 °F - 5.0 °F 85% 30.44 in 10.0 mi Calm Calm - N/A   Clear
11:15 PM 6.8 °F - 5.0 °F 92% 30.43 in 10.0 mi Calm Calm - N/A   Clear
11:35 PM 6.8 °F - 3.2 °F 85% 30.43 in 10.0 mi Calm Calm - N/A   Clear
11:55 PM 5.0 °F - 3.2 °F 92% 30.43 in 10.0 mi Calm Calm - N/A   Clear